Preview of NWS' New Version of Forecast
This preview is not operational and should not be used for support decisions.

Regional Weather Roundup (RWR)

Issued by National Weather Service (NWS)

                            
000
ASUS42 KTBW 191218
RWRFL 
FLORIDA REGIONAL WEATHER ROUNDUP
NATIONAL WEATHER SERVICE TAMPA BAY RUSKIN FL
800 AM EDT MON AUG 19 2019

NOTE: "FAIR" INDICATES FEW OR NO CLOUDS BELOW 12,000 FEET WITH NO
SIGNIFICANT WEATHER AND/OR OBSTRUCTIONS TO VISIBILITY.

FLZ001>010-012>015-112-114-115-191300-
PANHANDLE FLORIDA
  
CITY           SKY/WX    TMP DP  RH WIND       PRES   REMARKS
PENSACOLA      FAIR      80  78  94 NW6       30.01F                  
PENSACOLA NAS  RAIN      77  76  96 CALM      30.01F                  
MILTON NAS     FAIR      75  75 100 NW3       30.02S                  
CRESTVIEW      FAIR      77  74  90 NW3       30.04R                  
DUKE FIELD     FAIR      76  76 100 CALM      30.03R                  
VALPARAISO     FAIR      78  77  97 CALM      30.02R                  
MARY ESTHER    PTCLDY    78  75  92 CALM      30.01R                  
TRI COUNTY     FAIR      75  73  93 CALM      30.05R                  
PANAMA CITY    RAIN      77  75  93 CALM      30.02R FOG              
TYNDALL AFB    TSTM      77  75  93 CALM      30.02F                  
APALACHICOLA   MOCLDY    81  73  76 SW8       30.04S                  

STATION/POSITION SKY/WX   TEMP    WIND        PRES    WAVE   SWELL
                          AIR SEA DIR/SP/G            HT/PER HT/PER
                          (F)     (DEG/KT/KT) (MB)    (FT/S) (FT/S)
30.1N   87.6W              79 86  230/ 10/ 14 1016.3F   4/ 7   3/ 7
29.2N   88.2W              79 85  240/ 14/ 16 1017.2R   4/ 7   3/ 7
28.8N   86.0W                 85  220/ 10/ 17 1017.8R   3/ 6   3/ 6
PANAMA CITY BEAC           78 86  290/ 10/ 12 1017.6R
TOWER C                    82     240/ 14/ 15 1018.0R
28.5N   84.5W              83     220/  4/  4 1018.9R   3/ 6   2/ 6

$$
FLZ011-016>038-118-127-128-134-139-239-191300-
NORTH FLORIDA
  
CITY           SKY/WX    TMP DP  RH WIND       PRES   REMARKS
MARIANNA       CLOUDY    76  75  97 CALM      30.03R                  
TALLAHASSEE    LGT RAIN  76  75  97 SW7       30.06R                  
PERRY          HVY RAIN  74  73  97 SW7       30.10R                  
LIVE OAK       CLOUDY    73  73 100 CALM      30.08R FOG              
CROSS CITY     PTSUNNY   76  75  98 S6        30.08R                  
LAKE CITY      RAIN      72  72 100 CALM      30.09R                  
GAINESVILLE    FAIR      74  72  93 CALM      30.10F                  
WILLISTON      FAIR      73  73  99 CALM      30.09R                  
MAYPORT NAS    PTSUNNY   76  73  91 SW3       30.07S                  
JACKSONVILLE   PTSUNNY   76  73  91 SW6       30.07S                  
JAX NAS        PTSUNNY   78  71  79 SW7       30.08S                  
JAX CECIL      NOT AVBL                                               
FERNANDINA BEA FAIR      76  74  92 W3        30.08R                  
ST AUGUSTINE   FAIR      76  72  87 SW5       30.09S                  
PALM COAST     SUNNY     73  72  94 SW3       30.09R                  

STATION/POSITION SKY/WX   TEMP    WIND        PRES    WAVE   SWELL
                          AIR SEA DIR/SP/G            HT/PER HT/PER
                          (F)     (DEG/KT/KT) (MB)    (FT/S) (FT/S)
SHELL POINT      NOT AVBL
KEATON BEACH               76     310/ 11/ 14 1018.9R
CEDAR KEY                  78     170/  7/  9 1018.9R
FERNANDINA                 80 82              1019.0F
30.7N   81.3W                 81                N/A     2/ 8
MAYPORT                    77 83  260/  5/  7 1018.8R
31.4N   80.9W              80 82  230/ 10/ 12 1018.4R   2/ 4   2/ 9
ST AUGUSTINE               79 80  260/  6/  7 1018.8R

$$
FLZ040-043>046-052-053-057-058-063-144-191300-
INTERIOR CENTRAL FLORIDA
  
CITY           SKY/WX    TMP DP  RH WIND       PRES   REMARKS
OCALA          FAIR      73  73 100 CALM      30.10R                  
LEESBURG       FAIR      76  74  93 CALM      30.10R                  
SANFORD        FAIR      77  73  87 CALM      30.09R                  
ORLANDO EXEC   FAIR      79  73  82 NE3       30.10R                  
ORLANDO INTL   PTSUNNY   78  73  84 CALM      30.09R                  
KISSIMMEE      FAIR      79  75  87 NE5       30.10R                  
WINTER HAVEN   FAIR      79  74  84 NE3       30.10R                  
LAKELAND       SUNNY     75  73  94 CALM      30.10R                  
BARTOW         MOSUNNY   79  75  89 CALM      30.09R                  
SEBRING        FAIR      76  74  92 N6        30.09R                  
OKEECHOBEE     FAIR      77  73  88 N5        30.08R                  

$$
FLZ041-047-054-059-064-141-147-191300-
EAST CENTRAL FLORIDA
  
CITY           SKY/WX    TMP DP  RH WIND       PRES   REMARKS
ORMOND BEACH   SUNNY     73  73 100 CALM      30.09R                  
DAYTONA BEACH  CLOUDY    77  76  96 CALM      30.09R                  
DELAND         FAIR      75  72  88 CALM      30.09R                  
NEW SMYRNA BEA SUNNY     75  73  94 CALM      30.10R                  
JFK SPACE CTR  FAIR     N/A N/A N/A NE3         N/A                   
TITUSVILLE     SUNNY     79  77  94 VRB5      30.10R                  
CAPE CANAVERAL FAIR      77  77  99 MISG      30.08R                  
PATRICK AFB    FAIR      79  79 100 NE7       30.08R                  
MELBOURNE      FAIR      81  77  88 CALM      30.08R                  
VERO BEACH     FAIR      80  77  90 NE5       30.08R                  
FT PIERCE      FAIR      79  74  84 CALM      30.08R                  
STUART         MOSUNNY   81  77  89 CALM      30.09R                  

STATION/POSITION SKY/WX   TEMP    WIND        PRES    WAVE   SWELL
                          AIR SEA DIR/SP/G            HT/PER HT/PER
                          (F)     (DEG/KT/KT) (MB)    (FT/S) (FT/S)
28.5N   80.2W              82 84   30/  6/  8 1018.7R   2/ 8   2/ 8
28.9N   78.5W              85 86  130/  8/ 10 1019.7R   2/ 7   2/ 7
TRIDENT PIER               76 80  350/  3/  4 1020.2R
28.4N   80.5W                 78                N/A     1/ 9
27.5N   80.2W                 84                N/A     1/ 7

$$
FLZ050-056-061-142-242-148-248-149-249-151-251-155-255-
160-260-191300-
WEST CENTRAL FLORIDA
  
CITY           SKY/WX    TMP DP  RH WIND       PRES   REMARKS
CRYSTAL RIVER  FAIR      72  72 100 CALM      30.09S                  
INVERNESS      FAIR      72  72 100 CALM      30.10R FOG              
BROOKSVILLE    FAIR      73  72  96 CALM      30.10R                  
CLEARWATER AIR FAIR      75  72  88 CALM      30.09R                  
ST PETE CLEARW FAIR      79  73  82 CALM      30.09R                  
TAMPA INTL     PTSUNNY   78  72  81 E3        30.09R                  
PLANT CITY     FAIR      77  75  94 CALM      30.12R                  
MACDILL AFB    FAIR      76  74  92 E5        30.08R                  
PETER O KNIGHT CLOUDY   N/A N/A N/A NE6       30.09R                  
ST PETERSBURG  FAIR      80  75  84 NE8       30.07R                  
SARASOTA       FAIR      77  73  87 NE5       30.06R                  
VENICE         FAIR      79  73  83 E8        30.07S                  

STATION/POSITION SKY/WX   TEMP    WIND        PRES    WAVE   SWELL
                          AIR SEA DIR/SP/G            HT/PER HT/PER
                          (F)     (DEG/KT/KT) (MB)    (FT/S) (FT/S)
27.3N   84.2W                 85                N/A     3/ 8
CLEARWATER BEACH           78 85   70/  5/  7 1018.9R
MIDDLE TAMPA BAY           79     100/  7/  9 1018.6R
VENICE                     78 85   70/  6/  8 1018.1R

$$
FLZ066-069-070-075>078-162-262-165-265-191300-
SOUTHWEST FLORIDA AND KEYS
  
CITY           SKY/WX    TMP DP  RH WIND       PRES   REMARKS
PUNTA GORDA    FAIR      76  75  97 NE5       30.08R                  
FT MYERS       FAIR      77  73  87 E6        30.06R                  
SOUTHWEST INTL FAIR      77  73  87 NE5       30.07R                  
IMMOKALEE      FAIR      77  75  94 CALM      30.05R                  
MARATHON       FAIR      86  74  67 E10       30.02R                  
KEY WEST NAS   FAIR      87  75  67 E8        30.03R HX  96           
KEY WEST INTL  FAIR      85  75  72 NE7       30.03R                  

STATION/POSITION SKY/WX   TEMP    WIND        PRES    WAVE   SWELL
                          AIR SEA DIR/SP/G            HT/PER HT/PER
                          (F)     (DEG/KT/KT) (MB)    (FT/S) (FT/S)
NAPLES                     79 86              1017.7R
26.0N   85.6W              85 85  100/ 12/ 14 1017.2R   2/ 6   2/ 6
DRY TORTUGAS               86      90/ 12/ 13 1016.5R
SAND KEY                   86     100/ 17/ 19 1015.6
SOMBRERO KEY               86      80/ 16/ 20 1016.9
LONG KEY                   86                 1016.0

$$
FLZ067-068-071>074-168-172>174-191300-
SOUTHEAST FLORIDA 
  
CITY           SKY/WX    TMP DP  RH WIND       PRES   REMARKS
W PALM BEACH   FAIR      81  76  84 CALM      30.07R                  
BOCA RATON     MOSUNNY   81  77  89 CALM      30.06R                  
FT LAUDER-EXEC FAIR      83  75  77 E9        30.05R                  
FT LAUDERDALE  FAIR      84  74  71 E9        30.04R                  
POMPANO BEACH  FAIR      86  74  67 E12       30.05R                  
PEMBROKE PINES FAIR      82  76  81 CALM      30.07R                  
OPA LOCKA      FAIR      82  76  81 N3        30.06R                  
MIAMI          FAIR      84  73  69 NE3       30.05R                  
WEST KENDALL   FAIR      81  75  82 NE6       30.05R                  
HOMESTEAD      PTSUNNY   84  74  71 E10       30.03R                  

STATION/POSITION SKY/WX   TEMP    WIND        PRES    WAVE   SWELL
                          AIR SEA DIR/SP/G            HT/PER HT/PER
                          (F)     (DEG/KT/KT) (MB)    (FT/S) (FT/S)
PORT EVERGLADES            85      80/  7/ 10 1016.9
VIRGINIA KEY               84 89   90/ 18/ 21 1016.8R
LAKE WORTH                        100/  7/ 10   N/A
FOWEY ROCKS                85 86   90/ 17/ 18 1017.5R
SETTLEMENT POINT           85     100/ 13/ 15 1018.5R

$$